Regional Weather Roundup
Issued by NWS

Home | Current Version | Previous Version | Text Only | Print | Product List | Glossary Off
Versions: 1 2 3 4 5 6 7 8 9 10 11 12 13 14 15 16 17 18 19 20 21 22 23 24 25 26 27 28 29 30 31 32 33 34 35 36 37 38 39 40 41 42 43 44 45 46 47 48 49 50

558
ASUS43 KLOT 140208
RWRIL

ILLINOIS REGIONAL WEATHER ROUNDUP
NATIONAL WEATHER SERVICE CHICAGO/ROMEOVILLE IL
800 PM CST SAT FEB 13 2016

NOTE: "FAIR" INDICATES FEW OR NO CLOUDS BELOW 12,000 FEET WITH NO
SIGNIFICANT WEATHER AND/OR OBSTRUCTIONS TO VISIBILITY.

* THESE STATIONS ARE NOT UNDER NWS QUALITY CONTROL. THEY ALSO MAY NOT
  REPORT WEATHER SUCH AS PRECIPITATION OR FOG.

ILZ001-002-007-009-015-016-024-140300-
NORTHWEST ILLINOIS

CITY           SKY/WX    TMP DP  RH WIND       PRES   REMARKS
MOLINE         CLOUDY    17  -2  43 E10       30.46F WCI   5
STERLING*      CLOUDY    12   0  57 NE5       30.45F WCI   4
SAVANNA*       CLOUDY    10  -1  59 E5        30.48F WCI   2
$$

ILZ003-004-008-010-011-017-018-140300-
NORTH CENTRAL ILLINOIS

CITY           SKY/WX    TMP DP  RH WIND       PRES   REMARKS
ROCKFORD       CLOUDY    10  -1  61 CALM      30.49F
FREEPORT*      CLOUDY     8  -1  65 CALM      30.49F
ROCHELLE*      CLOUDY    10   3  75 CALM      30.49S
DE KALB*       PTCLDY    12  -2  53 CALM      30.48S
$$

ILZ005-006-012>014-019>023-140300-
NORTHEAST ILLINOIS

CITY           SKY/WX    TMP DP  RH WIND       PRES   REMARKS
CHICAGO-OHARE  PTCLDY    12  -4  48 NE5       30.48F WCI   4
CHICAGO-MIDWAY CLOUDY    15  -6  39 CALM      30.49F
AURORA         CLOUDY    12   4  70 CALM      30.49F
LANSING*       CLOUDY    12  -1  57 SE5       30.50F WCI   4
JOLIET*        PTCLDY    12   2  65 CALM      30.50F
WAUKEGAN       CLOUDY     4  -3  73 CALM      30.48F
DUPAGE AIRPORT CLOUDY    10  -3  55 CALM      30.47F
KANKAKEE*      PTCLDY    13   2  62 CALM      30.51F
WHEELING       CLEAR     11  -4  51 NE3       30.50F
MORRIS*        PTCLDY    14   1  56 CALM      30.49S
ROMEOVILLE*    CLOUDY    13  -1  52 W3        30.49F
NORTHERLY ISL    N/A     16  -4  41 W3          N/A
$$

LMZ740>746-140300-
SOUTHERN LAKE MICHIGAN

STATION/POSITION SKY/WX   TEMP    WIND        PRES    VSBY  WAVE
                          AIR SEA DIR/SP/G                  HT/PER
                          (F)     (DEG/KT/KT) (MB)    (MI)  (FT/S)
HARRISON CRIB              17     300/  5/  6   N/A
BURNHAM HARBOR             16     280/  3/  6   N/A
CALUMET HARBOR             15     280/  2/  3 1032.2S
BURNS HARBOR               14     170/  2/  3 1033.5S
MICHIGAN CITY              15     280/  6/  7   N/A
$$

ILZ025>027-034>036-040-047-049-050-058-095>099-140300-
WEST-CENTRAL ILLINOIS

CITY           SKY/WX    TMP DP  RH WIND       PRES   REMARKS
QUINCY         CLOUDY    18   4  54 SE12      30.43F WCI   5
GALESBURG*     MOCLDY    17   0  46 E5        30.44F WCI  10
MACOMB*        PTCLDY    19   5  53 SE9       30.47F WCI   8
JACKSONVILLE*  CLOUDY    21   6  53 SE9       30.46F WCI  11
PITTSFIELD*    CLOUDY    19   8  60 SE10      30.45F WCI   8
$$

ILZ028>032-037-038-041>044-048-051>054-059>061-140300-
CENTRAL ILLINOIS

CITY           SKY/WX    TMP DP  RH WIND       PRES   REMARKS
PONTIAC        PTCLDY    16   8  70 CALM      30.50F
BLOOMINGTON    PTCLDY    16   4  59 E5        30.48F WCI   9
DECATUR        CLOUDY    19   3  49 E10       30.48F WCI   7
PEORIA         CLOUDY    18  -2  41 E5        30.48F WCI  11
LACON*         MOCLDY    17  -1  44 E5        30.49F WCI  10
LINCOLN*       PTCLDY    19   3  48 E8        30.48F WCI   9
SPRINGFIELD    PTCLDY    20   3  48 SE8       30.48F WCI  10
TAYLORVILLE    CLOUDY    19   5  53 E8        30.48F WCI   9
$$

ILZ033-039-045-046-055>057-062-063-140300-
EAST-CENTRAL ILLINOIS

CITY           SKY/WX    TMP DP  RH WIND       PRES   REMARKS
CHAMPAIGN      CLOUDY    16   6  65 E6        30.49F WCI   7
RANTOUL*       PTCLDY    19   5  54 CALM      30.50S
MATTOON        CLOUDY    17   3  54 E3        30.49F
PARIS*         CLOUDY    17   5  59 CALM      30.52S
$$

ILZ079-100>102-140300-
SOUTHWEST ILLINOIS

CITY           SKY/WX    TMP DP  RH WIND       PRES   REMARKS
BELLEVILLE     CLOUDY    22   3  44 E7        30.46F WCI  13
CAHOKIA*       CLOUDY    23   4  44 E7        30.47F WCI  15
SPARTA*        CLOUDY    22   6  48 E6        30.48F WCI  15
$$

ILZ064>066-069>071-074>076-080>082-084>086-088>090-092>094-140300-
SOUTH-CENTRAL ILLINOIS

CITY           SKY/WX    TMP DP  RH WIND       PRES   REMARKS
CARBONDALE     CLOUDY    23   5  46 E7        30.48F WCI  15
CAIRO*         CLOUDY    26  10  49 NE9       30.46F WCI  17
EFFINGHAM*     CLOUDY    20   8  58 E3        30.52S
MARION         CLOUDY    23   7  50 E6        30.49F WCI  16
MT. VERNON     CLOUDY    21   3  45 E8        30.50F WCI  12
CENTRALIA*     CLOUDY    23   7  50 E6        30.48F WCI  15
SALEM*         CLOUDY    23   3  42 E5        30.49F WCI  17
METROPOLIS*    CLOUDY    25   9  50 E3        30.49F
$$

ILZ067-068-072-073-078-083-087-091-140300-
SOUTHEAST ILLINOIS

CITY           SKY/WX    TMP DP  RH WIND       PRES   REMARKS
LAWRENCEVILLE  CLOUDY    19   5  54 NE5       30.53F WCI  12
FLORA*         CLOUDY    22   4  46 E5        30.52F WCI  16
FAIRFIELD*     CLOUDY    22   4  46 NE5       30.50F WCI  16
HARRISBURG*    CLOUDY    23   7  50 NE3       30.51F
ROBINSON*      PTCLDY    18   2  50 NE5       30.54S WCI  11
CARMI*         CLOUDY    23   6  49 E6        30.51F WCI  15
$$

ABBREVIATIONS USED IN REMARKS
   TC - TEMPERATURE IN CELSIUS
  WCI - WIND CHILL INDEX
   HX - HEAT INDEX
  VSB - VISIBILITY
$$





USA.gov is the U.S. government's official web portal to all federal, state and local government web resources and services.